Location: Heisede
(52.2582°N, 9.8523°E)
Time: 20:23:56
(UTC+00:00)

Sich 1 - Pass Details

Date: 13 January 2026
Orbit: 572 x 598 km, 82.5° (Epoch: 16 February)

Event Time Altitude Azimuth Distance (km) Brightness Sun altitude
Rises 04:19:59 0° 166° (SSE) 2,806 6.6 -27.3°
Reaches altitude 10° 04:22:17 10° 158° (SSE) 1,906 5.8 -27.0°
Maximum altitude 04:26:08 36° 92° (E) 935 4.5 -26.4°
Drops below altitude 10° 04:29:59 10° 26° (NNE) 1,906 5.8 -25.8°
Sets 04:32:18 0° 17° (NNE) 2,806 6.6 -25.4°
